Location: Erba
(45.8000°N, 9.2500°E)
Time: 12:23:30
(UTC+02:00)

ISS - Pass Details

Date: 09 July 2020
Orbit: 417 x 420 km, 51.6° (Epoch: 02 July)

Event Time Altitude Azimuth Distance (km) Brightness Sun altitude
Exits shadow 02:36:39 33° 289° (WNW) 725 -2.6 -20.1°
Maximum altitude 02:37:43 47° 340° (NNW) 561 -2.9 -20.1°
Drops below altitude 10° 02:40:59 10° 56° (ENE) 1,497 -0.2 -19.9°
Sets 02:43:08 0° 63° (ENE) 2,362 0.8 -19.8°
